GSAT-8 (37605 NORAD) Tracking and Keplerian Element Data

This shows tracking and keplerian element data for the satellite.

Feedback or suggestion? Click here.




ElementValue
Catalog37605
NameGSAT-8
Epoch Orbit2419
Epoch Day195.909894
Epoch Year2018
RAAN276.6796
Inclination0.1127
Eccentricity0.000282
Argument of Perigee22.7781
Mean Anonmoly15.8153
Mean Motion1.00272714
Decay Rate6.8E-07
L11 37605U 11022A 18195.90989400 .00000068 00000-0 00000-0 0 9994
L22 37605 0.1127 276.6796 0002820 22.7781 15.8153 1.00272714 24199

Live tracking and technical data element details for GSAT-8 (NORAD 37605). GSAT-8 can be tracked NOW for your location showing map with azimuth and elevation plus other details from your city location.

Track the satellite on the map from your city or location and see movement details for azimuth, elevation, latitude, longitude, range, height, and movement on the map or in text.







IsCatalogInMostPopularTable: catalog: 37605, numindb: 45
Update: records affected: 1



GetName: 37605 GSAT-8

Hit Count: updated at: Sun, 15 Jul 2018 22:53:22 GMT